| time (UTC) | temp F | wind direction | speed knots | gust knots | rain 1hr in | rain 24hr in | rain mn in | humidity % | barometer mb |
| 20260504220045 | 70 | 121 | 1.7 | 6.1 | 0.00 | 0.00 | 0.00 | 54 | 1008.2 |
| 20260504214542 | 72 | 137 | 0.9 | 7.8 | 0.00 | 0.00 | 0.00 | 51 | 1008.3 |
| 20260504213043 | 71 | 193 | 1.7 | 11.3 | 0.00 | 0.00 | 0.00 | 54 | 1008.2 |
| 20260504211548 | 71 | 186 | 3.5 | 11.3 | 0.00 | 0.00 | 0.00 | 53 | 1008.2 |
| 20260504210049 | 72 | 310 | 2.6 | 8.7 | 0.00 | 0.00 | 0.00 | 52 | 1008.0 |
| 20260504204542 | 70 | 0 | 0.9 | 7.0 | 0.00 | 0.00 | 0.00 | 55 | 1008.3 |
| 20260504203045 | 72 | 148 | 1.7 | 9.6 | 0.00 | 0.00 | 0.00 | 51 | 1008.4 |
| 20260504201544 | 72 | 0 | 1.7 | 7.0 | 0.00 | 0.00 | 0.00 | 52 | 1008.6 |
| 20260504200046 | 72 | 281 | 3.5 | 9.6 | 0.00 | 0.00 | 0.00 | 52 | 1008.8 |
| 20260504194552 | 72 | 254 | 1.7 | 10.4 | 0.00 | 0.00 | 0.00 | 52 | 1008.7 |
| 20260504193048 | 72 | 191 | 2.6 | 7.8 | 0.00 | 0.00 | 0.00 | 54 | 1009.0 |
| 20260504191607 | 72 | 282 | 3.5 | 7.0 | 0.00 | 0.00 | 0.00 | 54 | 1009.1 |
| 20260504190042 | 71 | 220 | 0.9 | 8.7 | 0.00 | 0.00 | 0.00 | 52 | 1009.4 |
| 20260504184550 | 69 | 196 | 1.7 | 7.0 | 0.00 | 0.00 | 0.00 | 56 | 1009.6 |
| 20260504183045 | 70 | 240 | 2.6 | 8.7 | 0.00 | 0.00 | 0.00 | 53 | 1009.8 |
| 20260504181544 | 70 | 202 | 3.5 | 8.7 | 0.00 | 0.00 | 0.00 | 53 | 1009.9 |
| 20260504180041 | 70 | 242 | 1.7 | 6.1 | 0.00 | 0.00 | 0.00 | 54 | 1009.9 |
| 20260504174545 | 70 | 221 | 1.7 | 7.0 | 0.00 | 0.00 | 0.00 | 56 | 1010.0 |
| 20260504173039 | 69 | 71 | 2.6 | 9.6 | 0.00 | 0.00 | 0.00 | 54 | 1010.2 |
| 20260504171541 | 68 | 240 | 2.6 | 13.9 | 0.00 | 0.00 | 0.00 | 54 | 1010.5 |
| 20260504081545 | 43 | 0 | 0.0 | 0.0 | 0.00 | 0.00 | 0.00 | 74 | 1013.3 |
| 20260504044538 | 44 | 0 | 0.0 | 0.0 | 0.00 | 0.00 | 0.00 | 67 | 1014.5 |
| 20260504043045 | 44 | 0 | 0.0 | 0.0 | 0.00 | 0.00 | 0.00 | 66 | 1014.4 |
| 20260504041544 | 44 | 0 | 0.0 | 0.0 | 0.00 | 0.00 | 0.00 | 66 | 1014.5 |
| 20260504040046 | 45 | 0 | 0.0 | 0.0 | 0.00 | 0.00 | 0.00 | 65 | 1014.5 |
| 20260504034554 | 45 | 0 | 0.0 | 0.0 | 0.00 | 0.00 | 0.00 | 64 | 1014.6 |
| 20260504033050 | 45 | 0 | 0.0 | 0.0 | 0.00 | 0.00 | 0.00 | 65 | 1014.6 |
| 20260504031549 | 45 | 0 | 0.0 | 0.0 | 0.00 | 0.00 | 0.00 | 65 | 1014.5 |
| 20260504030049 | 45 | 0 | 0.0 | 0.0 | 0.00 | 0.00 | 0.00 | 64 | 1014.6 |
| 20260504024549 | 46 | 0 | 0.0 | 0.0 | 0.00 | 0.00 | 0.00 | 62 | 1014.6 |
| 20260504023043 | 46 | 0 | 0.0 | 0.0 | 0.00 | 0.00 | 0.00 | 63 | 1014.6 |
| 20260504021543 | 46 | 0 | 0.0 | 0.0 | 0.00 | 0.00 | 0.00 | 61 | 1014.8 |
| 20260504020039 | 47 | 0 | 0.0 | 1.7 | 0.00 | 0.00 | 0.00 | 60 | 1014.6 |
| 20260504014540 | 47 | 0 | 0.0 | 1.7 | 0.00 | 0.00 | 0.00 | 59 | 1014.6 |
| 20260504013045 | 47 | 0 | 0.0 | 0.9 | 0.00 | 0.00 | 0.00 | 59 | 1014.4 |
| 20260504011545 | 48 | 0 | 0.0 | 1.7 | 0.00 | 0.00 | 0.00 | 58 | 1014.3 |
| 20260504010044 | 49 | 0 | 0.0 | 2.6 | 0.00 | 0.00 | 0.00 | 56 | 1014.3 |
| 20260504004542 | 49 | 140 | 0.0 | 3.5 | 0.00 | 0.01 | 0.00 | 55 | 1014.3 |
| 20260504003045 | 50 | 0 | 0.0 | 6.1 | 0.00 | 0.01 | 0.00 | 54 | 1014.2 |
| 20260504001539 | 51 | 259 | 0.0 | 1.7 | 0.00 | 0.01 | 0.00 | 54 | 1014.2 |
| 20260504000106 | 52 | 0 | 0.9 | 7.0 | 0.00 | 0.01 | 0.00 | 51 | 1014.2 |
| 20260503234544 | 53 | 248 | 0.9 | 5.2 | 0.00 | 0.01 | 0.00 | 50 | 1014.1 |
| 20260503233043 | 54 | 272 | 0.0 | 5.2 | 0.00 | 0.01 | 0.00 | 48 | 1014.2 |
| 20260503231542 | 55 | 273 | 2.6 | 7.8 | 0.00 | 0.01 | 0.00 | 47 | 1014.2 |
| 20260503230040 | 55 | 292 | 1.7 | 7.0 | 0.00 | 0.01 | 0.00 | 46 | 1014.2 |
| 20260503224538 | 55 | 279 | 2.6 | 12.2 | 0.00 | 0.01 | 0.00 | 47 | 1014.2 |
| 20260503223045 | 56 | 195 | 2.6 | 9.6 | 0.00 | 0.01 | 0.00 | 47 | 1014.2 |
| 20260503221541 | 55 | 0 | 1.7 | 9.6 | 0.00 | 0.01 | 0.00 | 47 | 1014.2 |